Tracking 19562 objects as of 24-Mar-2019
HD Live streaming from Space Station
objects crossing your sky now

FLOCK 3P 59

Track FLOCK 3P 59 now!
10-day predictions
FLOCK 3P 59 is classified as:


NORAD ID: 42022
Int'l Code: 2017-008CC
Perigee: 488.6 km
Apogee: 501.5 km
Inclination: 97.4 °
Period: 94.4 minutes
Semi major axis: 6866 km
RCS: Unknown
Launch date: February 15, 2017
Source: United States (US)
Launch site: SRIHARIKOTA (SRI)
aabbcc
Your satellite tracking list
Your tracking list is empty




NASA's NSSDC Master Catalog

Two Line Element Set (TLE):
1 42022U 17008CC  19081.86199714 +.00002534 +00000-0 +10141-3 0  9994
2 42022 097.4149 150.0058 0009340 094.8971 265.3334 15.25959533115458
Source of the keplerian elements: AFSPC